Location: Newark
(55.1225°N, 33.2808°E)
Time: 23:59:38
(UTC+00:00)

ISS - Pass Details

Date: 21 September 2019
Orbit: 411 x 421 km, 51.6° (Epoch: 16 October)

Event Time Altitude Azimuth Distance (km) Brightness Sun altitude
Rises 17:03:19 0° 207° (SSW) 2,335 0.2 -11.2°
Reaches altitude 10° 17:06:03 10° 183° (S) 1,477 -1.1 -11.6°
Maximum altitude 17:08:00 15° 146° (SSE) 1,220 -1.9 -11.8°
Enters shadow 17:08:04 15° 145° (SE) 1,220 -1.9 -11.9°
